owner,sensor,date,latitude,longitude,vertical_datum,sea_water_temperature,qcFlag
BP,ioos:station:wmo:42369:1,2023-02-01T00:19:00Z,27.2056,-90.2872,2.0,23.0,11111222
BP,ioos:station:wmo:42369:1,2023-02-01T00:39:00Z,27.2056,-90.2872,2.0,23.0,11111222
BP,ioos:station:wmo:42369:1,2023-02-01T00:59:00Z,27.2056,-90.2872,2.0,22.9,11111222
BP,ioos:station:wmo:42369:1,2023-02-01T01:19:00Z,27.2056,-90.2872,2.0,22.9,11111222
BP,ioos:station:wmo:42369:1,2023-02-01T01:39:00Z,27.2057,-90.2850,2.0,22.8,11111222
BP,ioos:station:wmo:42369:1,2023-02-01T01:59:00Z,27.2057,-90.2850,2.0,22.8,11111222
BP,ioos:station:wmo:42369:1,2023-02-01T02:19:00Z,27.2057,-90.2850,2.0,22.8,11111222
BP,ioos:station:wmo:42369:1,2023-02-01T02:39:00Z,27.2057,-90.2850,2.0,22.8,11111222
BP,ioos:station:wmo:42369:1,2023-02-01T02:59:00Z,27.2057,-90.2850,2.0,22.9,11111222
BP,ioos:station:wmo:42369:1,2023-02-01T03:19:00Z,27.2057,-90.2850,2.0,22.9,11111222
BP,ioos:station:wmo:42369:1,2023-02-01T03:39:00Z,27.2057,-90.2850,2.0,22.9,11111222
BP,ioos:station:wmo:42369:1,2023-02-01T03:59:00Z,27.2057,-90.2850,2.0,22.9,11111222
BP,ioos:station:wmo:42369:1,2023-02-01T04:19:00Z,27.2036,-90.2835,2.0,23.0,11111222
BP,ioos:station:wmo:42369:1,2023-02-01T04:39:00Z,27.2036,-90.2835,2.0,23.0,11111222
BP,ioos:station:wmo:42369:1,2023-02-01T04:59:00Z,27.2036,-90.2835,2.0,22.9,11111222
BP,ioos:station:wmo:42369:1,2023-02-01T05:19:00Z,27.2028,-90.2839,2.0,22.9,11111222
BP,ioos:station:wmo:42369:1,2023-02-01T05:39:00Z,27.2028,-90.2839,2.0,22.9,11111222
BP,ioos:station:wmo:42369:1,2023-02-01T05:59:00Z,27.2028,-90.2839,2.0,22.9,11111222
BP,ioos:station:wmo:42369:1,2023-02-01T06:19:00Z,27.2028,-90.2839,2.0,22.9,11111222
BP,ioos:station:wmo:42369:1,2023-02-01T06:39:00Z,27.2026,-90.2847,2.0,22.9,11111222
BP,ioos:station:wmo:42369:1,2023-02-01T06:59:00Z,27.2026,-90.2847,2.0,22.9,11111222
BP,ioos:station:wmo:42369:1,2023-02-01T07:19:00Z,27.2026,-90.2847,2.0,22.9,11111222
BP,ioos:station:wmo:42369:1,2023-02-01T07:39:00Z,27.2026,-90.2847,2.0,22.9,11111222
BP,ioos:station:wmo:42369:1,2023-02-01T07:59:00Z,27.2026,-90.2847,2.0,22.9,11111222
BP,ioos:station:wmo:42369:1,2023-02-01T08:19:00Z,27.2026,-90.2861,2.0,22.9,11111222
BP,ioos:station:wmo:42369:1,2023-02-01T08:39:00Z,27.2026,-90.2861,2.0,22.9,11111222
BP,ioos:station:wmo:42369:1,2023-02-01T08:59:00Z,27.2026,-90.2861,2.0,22.9,11111222
BP,ioos:station:wmo:42369:1,2023-02-01T09:19:00Z,27.2028,-90.2873,2.0,22.9,11111222
BP,ioos:station:wmo:42369:1,2023-02-01T09:39:00Z,27.2028,-90.2873,2.0,22.9,11111222
BP,ioos:station:wmo:42369:1,2023-02-01T09:59:00Z,27.2028,-90.2873,2.0,22.9,11111222
BP,ioos:station:wmo:42369:1,2023-02-01T10:19:00Z,27.2028,-90.2873,2.0,22.9,11111222
BP,ioos:station:wmo:42369:1,2023-02-01T10:39:00Z,27.2028,-90.2873,2.0,22.9,11111222
BP,ioos:station:wmo:42369:1,2023-02-01T10:59:00Z,27.2028,-90.2873,2.0,22.9,11111222
BP,ioos:station:wmo:42369:1,2023-02-01T11:19:00Z,27.2028,-90.2873,2.0,22.9,11111222
BP,ioos:station:wmo:42369:1,2023-02-01T11:39:00Z,27.2028,-90.2873,2.0,22.9,11111222
BP,ioos:station:wmo:42369:1,2023-02-01T11:59:00Z,27.2028,-90.2873,2.0,22.9,11111222
BP,ioos:station:wmo:42369:1,2023-02-01T12:19:00Z,27.2043,-90.2897,2.0,22.9,11111222
BP,ioos:station:wmo:42369:1,2023-02-01T12:39:00Z,27.2043,-90.2897,2.0,22.9,11111222
BP,ioos:station:wmo:42369:1,2023-02-01T12:59:00Z,27.2043,-90.2897,2.0,22.9,11111222
BP,ioos:station:wmo:42369:1,2023-02-01T13:19:00Z,27.2043,-90.2897,2.0,22.9,11111222
BP,ioos:station:wmo:42369:1,2023-02-01T13:39:00Z,27.2043,-90.2897,2.0,22.9,11111222
BP,ioos:station:wmo:42369:1,2023-02-01T13:59:00Z,27.2043,-90.2897,2.0,22.9,11111222
BP,ioos:station:wmo:42369:1,2023-02-01T14:19:00Z,27.2052,-90.2902,2.0,22.9,11111222
BP,ioos:station:wmo:42369:1,2023-02-01T14:39:00Z,27.2052,-90.2902,2.0,22.9,11111222
BP,ioos:station:wmo:42369:1,2023-02-01T14:59:00Z,27.2052,-90.2902,2.0,22.8,11111222
BP,ioos:station:wmo:42369:1,2023-02-01T15:19:00Z,27.2052,-90.2902,2.0,22.8,11111222
BP,ioos:station:wmo:42369:1,2023-02-01T15:39:00Z,27.2052,-90.2902,2.0,22.9,11111222
BP,ioos:station:wmo:42369:1,2023-02-01T15:59:00Z,27.2052,-90.2902,2.0,22.9,11111222
BP,ioos:station:wmo:42369:1,2023-02-01T16:19:00Z,27.2061,-90.2905,2.0,22.9,11111222
BP,ioos:station:wmo:42369:1,2023-02-01T16:39:00Z,27.2061,-90.2905,2.0,23.0,11111222
BP,ioos:station:wmo:42369:1,2023-02-01T16:59:00Z,27.2061,-90.2905,2.0,23.0,11111222
BP,ioos:station:wmo:42369:1,2023-02-01T17:19:00Z,27.2066,-90.2907,2.0,23.1,11111222
BP,ioos:station:wmo:42369:1,2023-02-01T17:39:00Z,27.2066,-90.2907,2.0,23.1,11111222
BP,ioos:station:wmo:42369:1,2023-02-01T17:59:00Z,27.2066,-90.2907,2.0,23.2,11111222
BP,ioos:station:wmo:42369:1,2023-02-01T18:19:00Z,27.2069,-90.2906,2.0,23.3,11111222
BP,ioos:station:wmo:42369:1,2023-02-01T18:39:00Z,27.2069,-90.2906,2.0,23.3,11111222
BP,ioos:station:wmo:42369:1,2023-02-01T18:59:00Z,27.2069,-90.2906,2.0,23.3,11111222
BP,ioos:station:wmo:42369:1,2023-02-01T19:19:00Z,27.2070,-90.2903,2.0,23.3,11111222
BP,ioos:station:wmo:42369:1,2023-02-01T19:39:00Z,27.2070,-90.2903,2.0,23.4,11111222
BP,ioos:station:wmo:42369:1,2023-02-01T19:59:00Z,27.2070,-90.2903,2.0,23.4,11111222
BP,ioos:station:wmo:42369:1,2023-02-01T20:19:00Z,27.2073,-90.2901,2.0,23.3,11111222
BP,ioos:station:wmo:42369:1,2023-02-01T20:39:00Z,27.2073,-90.2901,2.0,23.3,11111222
BP,ioos:station:wmo:42369:1,2023-02-01T20:59:00Z,27.2073,-90.2901,2.0,23.4,11111222
BP,ioos:station:wmo:42369:1,2023-02-01T21:19:00Z,27.2071,-90.2901,2.0,23.4,11111222
BP,ioos:station:wmo:42369:1,2023-02-01T21:39:00Z,27.2071,-90.2901,2.0,23.4,11111222
BP,ioos:station:wmo:42369:1,2023-02-01T21:59:00Z,27.2071,-90.2901,2.0,23.3,11111222
BP,ioos:station:wmo:42369:1,2023-02-01T22:19:00Z,27.2065,-90.2898,2.0,23.3,11111222
BP,ioos:station:wmo:42369:1,2023-02-01T22:39:00Z,27.2065,-90.2898,2.0,23.2,11111222
BP,ioos:station:wmo:42369:1,2023-02-01T22:59:00Z,27.2065,-90.2898,2.0,23.3,11111222
BP,ioos:station:wmo:42369:1,2023-02-01T23:19:00Z,27.2065,-90.2898,2.0,23.3,11111222
BP,ioos:station:wmo:42369:1,2023-02-01T23:39:00Z,27.2062,-90.2898,2.0,23.3,11111222
BP,ioos:station:wmo:42369:1,2023-02-01T23:59:00Z,27.2062,-90.2898,2.0,23.2,11111222
BP,ioos:station:wmo:42369:1,2023-02-02T00:19:00Z,27.2060,-90.2897,2.0,23.2,11111222
BP,ioos:station:wmo:42369:1,2023-02-02T00:39:00Z,27.2059,-90.2896,2.0,23.2,11111222
BP,ioos:station:wmo:42369:1,2023-02-02T00:59:00Z,27.2058,-90.2897,2.0,23.2,11111222
BP,ioos:station:wmo:42369:1,2023-02-02T01:19:00Z,27.2056,-90.2897,2.0,23.1,11111222
BP,ioos:station:wmo:42369:1,2023-02-02T01:39:00Z,27.2054,-90.2897,2.0,23.1,11111222
BP,ioos:station:wmo:42369:1,2023-02-02T01:59:00Z,27.2054,-90.2897,2.0,23.2,11111222
BP,ioos:station:wmo:42369:1,2023-02-02T02:19:00Z,27.2052,-90.2897,2.0,23.1,11111222
BP,ioos:station:wmo:42369:1,2023-02-02T02:39:00Z,27.2052,-90.2897,2.0,23.1,11111222
BP,ioos:station:wmo:42369:1,2023-02-02T02:59:00Z,27.2052,-90.2897,2.0,23.1,11111222
BP,ioos:station:wmo:42369:1,2023-02-02T03:19:00Z,27.2050,-90.2896,2.0,23.1,11111222
BP,ioos:station:wmo:42369:1,2023-02-02T03:39:00Z,27.2050,-90.2895,2.0,23.1,11111222
BP,ioos:station:wmo:42369:1,2023-02-02T03:59:00Z,27.2050,-90.2895,2.0,23.1,11111222
BP,ioos:station:wmo:42369:1,2023-02-02T04:19:00Z,27.2050,-90.2895,2.0,23.1,11111222
BP,ioos:station:wmo:42369:1,2023-02-02T04:39:00Z,27.2050,-90.2894,2.0,23.1,11111222
BP,ioos:station:wmo:42369:1,2023-02-02T04:59:00Z,27.2049,-90.2894,2.0,23.1,11111222
BP,ioos:station:wmo:42369:1,2023-02-02T05:19:00Z,27.2048,-90.2894,2.0,23.1,11111222
BP,ioos:station:wmo:42369:1,2023-02-02T05:39:00Z,27.2047,-90.2894,2.0,23.1,11111222
BP,ioos:station:wmo:42369:1,2023-02-02T05:59:00Z,27.2048,-90.2894,2.0,23.1,11111222
BP,ioos:station:wmo:42369:1,2023-02-02T06:19:00Z,27.2049,-90.2894,2.0,23.1,11111222
BP,ioos:station:wmo:42369:1,2023-02-02T06:39:00Z,27.2049,-90.2893,2.0,23.0,11111222
BP,ioos:station:wmo:42369:1,2023-02-02T06:59:00Z,27.2048,-90.2893,2.0,23.0,11111222
BP,ioos:station:wmo:42369:1,2023-02-02T07:19:00Z,27.2047,-90.2892,2.0,23.1,11111222
BP,ioos:station:wmo:42369:1,2023-02-02T07:39:00Z,27.2046,-90.2891,2.0,23.1,11111222
BP,ioos:station:wmo:42369:1,2023-02-02T07:59:00Z,27.2045,-90.2890,2.0,23.0,11111222
BP,ioos:station:wmo:42369:1,2023-02-02T08:19:00Z,27.2045,-90.2890,2.0,23.0,11111222
BP,ioos:station:wmo:42369:1,2023-02-02T08:39:00Z,27.2046,-90.2889,2.0,23.0,11111222
BP,ioos:station:wmo:42369:1,2023-02-02T08:59:00Z,27.2045,-90.2889,2.0,23.0,11111222
BP,ioos:station:wmo:42369:1,2023-02-02T09:19:00Z,27.2045,-90.2889,2.0,23.0,11111222
BP,ioos:station:wmo:42369:1,2023-02-02T09:39:00Z,27.2045,-90.2888,2.0,23.0,11111222
BP,ioos:station:wmo:42369:1,2023-02-02T09:59:00Z,27.2045,-90.2889,2.0,23.0,11111222
BP,ioos:station:wmo:42369:1,2023-02-02T10:19:00Z,27.2046,-90.2889,2.0,23.0,11111222
BP,ioos:station:wmo:42369:1,2023-02-02T10:39:00Z,27.2045,-90.2890,2.0,23.0,11111222
BP,ioos:station:wmo:42369:1,2023-02-02T10:59:00Z,27.2045,-90.2889,2.0,23.0,11111222
BP,ioos:station:wmo:42369:1,2023-02-02T11:19:00Z,27.2045,-90.2889,2.0,23.0,11111222
BP,ioos:station:wmo:42369:1,2023-02-02T11:39:00Z,27.2044,-90.2890,2.0,23.0,11111222
BP,ioos:station:wmo:42369:1,2023-02-02T11:59:00Z,27.2043,-90.2890,2.0,23.0,11111222
BP,ioos:station:wmo:42369:1,2023-02-02T12:19:00Z,27.2043,-90.2890,2.0,23.0,11111222
BP,ioos:station:wmo:42369:1,2023-02-02T12:39:00Z,27.2042,-90.2889,2.0,23.0,11111222
BP,ioos:station:wmo:42369:1,2023-02-02T12:59:00Z,27.2042,-90.2890,2.0,23.0,11111222
BP,ioos:station:wmo:42369:1,2023-02-02T13:19:00Z,27.2042,-90.2890,2.0,23.0,11111222
BP,ioos:station:wmo:42369:1,2023-02-02T13:39:00Z,27.2042,-90.2890,2.0,23.0,11111222
BP,ioos:station:wmo:42369:1,2023-02-02T13:59:00Z,27.2042,-90.2890,2.0,23.0,11111222
BP,ioos:station:wmo:42369:1,2023-02-02T14:19:00Z,27.2041,-90.2890,2.0,23.0,11111222
BP,ioos:station:wmo:42369:1,2023-02-02T14:39:00Z,27.2041,-90.2890,2.0,23.0,11111222
BP,ioos:station:wmo:42369:1,2023-02-02T14:59:00Z,27.2040,-90.2890,2.0,23.0,11111222
BP,ioos:station:wmo:42369:1,2023-02-02T15:19:00Z,27.2042,-90.2892,2.0,23.0,11111222
BP,ioos:station:wmo:42369:1,2023-02-02T15:39:00Z,27.2044,-90.2893,2.0,23.0,11111222
BP,ioos:station:wmo:42369:1,2023-02-02T15:59:00Z,27.2047,-90.2894,2.0,23.1,11111222
BP,ioos:station:wmo:42369:1,2023-02-02T16:19:00Z,27.2049,-90.2896,2.0,23.1,11111222
BP,ioos:station:wmo:42369:1,2023-02-02T16:39:00Z,27.2048,-90.2895,2.0,23.1,11111222
BP,ioos:station:wmo:42369:1,2023-02-02T16:59:00Z,27.2048,-90.2896,2.0,23.1,11111222
BP,ioos:station:wmo:42369:1,2023-02-02T17:19:00Z,27.2048,-90.2895,2.0,23.1,11111222
BP,ioos:station:wmo:42369:1,2023-02-02T17:39:00Z,27.2047,-90.2895,2.0,23.2,11111222
BP,ioos:station:wmo:42369:1,2023-02-02T17:59:00Z,27.2047,-90.2894,2.0,23.2,11111222
BP,ioos:station:wmo:42369:1,2023-02-02T18:19:00Z,27.2047,-90.2894,2.0,23.2,11111222
BP,ioos:station:wmo:42369:1,2023-02-02T18:39:00Z,27.2047,-90.2894,2.0,23.2,11111222
BP,ioos:station:wmo:42369:1,2023-02-02T18:59:00Z,27.2047,-90.2894,2.0,23.2,11111222
BP,ioos:station:wmo:42369:1,2023-02-02T19:19:00Z,27.2048,-90.2892,2.0,23.2,11111222
BP,ioos:station:wmo:42369:1,2023-02-02T19:39:00Z,27.2048,-90.2891,2.0,23.3,11111222
BP,ioos:station:wmo:42369:1,2023-02-02T19:59:00Z,27.2048,-90.2890,2.0,23.3,11111222
BP,ioos:station:wmo:42369:1,2023-02-02T20:19:00Z,27.2047,-90.2889,2.0,23.2,11111222
BP,ioos:station:wmo:42369:1,2023-02-02T20:39:00Z,27.2042,-90.2884,2.0,23.2,11111222
BP,ioos:station:wmo:42369:1,2023-02-02T20:59:00Z,27.2042,-90.2884,2.0,23.2,11111222
BP,ioos:station:wmo:42369:1,2023-02-02T21:19:00Z,27.2042,-90.2884,2.0,23.2,11111222
BP,ioos:station:wmo:42369:1,2023-02-02T21:39:00Z,27.2041,-90.2882,2.0,23.2,11111222
BP,ioos:station:wmo:42369:1,2023-02-02T21:59:00Z,27.2039,-90.2880,2.0,23.2,11111222
BP,ioos:station:wmo:42369:1,2023-02-02T22:19:00Z,27.2040,-90.2880,2.0,23.2,11111222
BP,ioos:station:wmo:42369:1,2023-02-02T22:39:00Z,27.2039,-90.2879,2.0,23.2,11111222
BP,ioos:station:wmo:42369:1,2023-02-02T22:59:00Z,27.2038,-90.2878,2.0,23.2,11111222
BP,ioos:station:wmo:42369:1,2023-02-02T23:19:00Z,27.2038,-90.2877,2.0,23.2,11111222
BP,ioos:station:wmo:42369:1,2023-02-02T23:39:00Z,27.2038,-90.2876,2.0,23.2,11111222
BP,ioos:station:wmo:42369:1,2023-02-02T23:59:00Z,27.2038,-90.2876,2.0,23.2,11111222
BP,ioos:station:wmo:42369:1,2023-02-03T00:19:00Z,27.2036,-90.2875,2.0,23.2,11111222
BP,ioos:station:wmo:42369:1,2023-02-03T00:39:00Z,27.2035,-90.2874,2.0,23.2,11111222
BP,ioos:station:wmo:42369:1,2023-02-03T00:59:00Z,27.2033,-90.2872,2.0,23.2,11111222
BP,ioos:station:wmo:42369:1,2023-02-03T01:19:00Z,27.2025,-90.2866,2.0,23.2,11111222
BP,ioos:station:wmo:42369:1,2023-02-03T01:39:00Z,27.2019,-90.2861,2.0,23.2,11111222
BP,ioos:station:wmo:42369:1,2023-02-03T01:59:00Z,27.2007,-90.2848,2.0,23.2,11111222
BP,ioos:station:wmo:42369:1,2023-02-03T02:19:00Z,27.2006,-90.2845,2.0,23.1,11111222
BP,ioos:station:wmo:42369:1,2023-02-03T02:39:00Z,27.2004,-90.2841,2.0,23.1,11111222
BP,ioos:station:wmo:42369:1,2023-02-03T02:59:00Z,27.2004,-90.2839,2.0,23.1,11111222
BP,ioos:station:wmo:42369:1,2023-02-03T03:19:00Z,27.2003,-90.2838,2.0,23.1,11111222
BP,ioos:station:wmo:42369:1,2023-02-03T03:39:00Z,27.2003,-90.2836,2.0,23.1,11111222
BP,ioos:station:wmo:42369:1,2023-02-03T03:59:00Z,27.2002,-90.2835,2.0,23.1,11111222
BP,ioos:station:wmo:42369:1,2023-02-03T04:19:00Z,27.2002,-90.2835,2.0,23.1,11111222
BP,ioos:station:wmo:42369:1,2023-02-03T04:39:00Z,27.2001,-90.2835,2.0,23.1,11111222
BP,ioos:station:wmo:42369:1,2023-02-03T04:59:00Z,27.2002,-90.2835,2.0,23.1,11111222
BP,ioos:station:wmo:42369:1,2023-02-03T05:19:00Z,27.2002,-90.2835,2.0,23.1,11111222
BP,ioos:station:wmo:42369:1,2023-02-03T05:39:00Z,27.2000,-90.2832,2.0,23.1,11111222
BP,ioos:station:wmo:42369:1,2023-02-03T05:59:00Z,27.1999,-90.2830,2.0,23.1,11111222
BP,ioos:station:wmo:42369:1,2023-02-03T06:19:00Z,27.1999,-90.2829,2.0,23.1,11111222
BP,ioos:station:wmo:42369:1,2023-02-03T06:39:00Z,27.1999,-90.2828,2.0,23.1,11111222
BP,ioos:station:wmo:42369:1,2023-02-03T06:59:00Z,27.1999,-90.2828,2.0,23.1,11111222
BP,ioos:station:wmo:42369:1,2023-02-03T07:19:00Z,27.1998,-90.2827,2.0,23.1,11111222
BP,ioos:station:wmo:42369:1,2023-02-03T07:39:00Z,27.1998,-90.2828,2.0,23.0,11111222
BP,ioos:station:wmo:42369:1,2023-02-03T07:59:00Z,27.1997,-90.2828,2.0,23.0,11111222
BP,ioos:station:wmo:42369:1,2023-02-03T08:19:00Z,27.1997,-90.2829,2.0,23.0,11111222
BP,ioos:station:wmo:42369:1,2023-02-03T08:39:00Z,27.1996,-90.2829,2.0,23.0,11111222
BP,ioos:station:wmo:42369:1,2023-02-03T08:59:00Z,27.1996,-90.2828,2.0,23.0,11111222
BP,ioos:station:wmo:42369:1,2023-02-03T09:19:00Z,27.1995,-90.2830,2.0,23.0,11111222
BP,ioos:station:wmo:42369:1,2023-02-03T09:39:00Z,27.1996,-90.2831,2.0,23.0,11111222
BP,ioos:station:wmo:42369:1,2023-02-03T09:59:00Z,27.1995,-90.2833,2.0,23.0,11111222
BP,ioos:station:wmo:42369:1,2023-02-03T10:19:00Z,27.1996,-90.2834,2.0,23.0,11111222
BP,ioos:station:wmo:42369:1,2023-02-03T10:39:00Z,27.1996,-90.2835,2.0,23.0,11111222
BP,ioos:station:wmo:42369:1,2023-02-03T10:59:00Z,27.1996,-90.2837,2.0,23.0,11111222
BP,ioos:station:wmo:42369:1,2023-02-03T11:19:00Z,27.1996,-90.2838,2.0,23.0,11111222
BP,ioos:station:wmo:42369:1,2023-02-03T11:39:00Z,27.1996,-90.2840,2.0,23.0,11111222
BP,ioos:station:wmo:42369:1,2023-02-03T11:59:00Z,27.1996,-90.2843,2.0,23.0,11111222
BP,ioos:station:wmo:42369:1,2023-02-03T12:19:00Z,27.1996,-90.2844,2.0,22.9,11111222
BP,ioos:station:wmo:42369:1,2023-02-03T12:39:00Z,27.1997,-90.2850,2.0,22.9,11111222
BP,ioos:station:wmo:42369:1,2023-02-03T12:59:00Z,27.1997,-90.2854,2.0,22.9,11111222
BP,ioos:station:wmo:42369:1,2023-02-03T13:19:00Z,27.1997,-90.2854,2.0,22.9,11111222
BP,ioos:station:wmo:42369:1,2023-02-03T13:39:00Z,27.1999,-90.2861,2.0,22.9,11111222
BP,ioos:station:wmo:42369:1,2023-02-03T13:59:00Z,27.1999,-90.2863,2.0,22.9,11111222
BP,ioos:station:wmo:42369:1,2023-02-03T14:19:00Z,27.2001,-90.2868,2.0,22.9,11111222
BP,ioos:station:wmo:42369:1,2023-02-03T14:39:00Z,27.2001,-90.2871,2.0,22.9,11111222
BP,ioos:station:wmo:42369:1,2023-02-03T14:59:00Z,27.2001,-90.2871,2.0,22.8,11111222
BP,ioos:station:wmo:42369:1,2023-02-03T15:19:00Z,27.2003,-90.2873,2.0,22.8,11111222
BP,ioos:station:wmo:42369:1,2023-02-03T15:39:00Z,27.2004,-90.2875,2.0,22.8,11111222
BP,ioos:station:wmo:42369:1,2023-02-03T15:59:00Z,27.2005,-90.2877,2.0,22.8,11111222
BP,ioos:station:wmo:42369:1,2023-02-03T16:19:00Z,27.2006,-90.2878,2.0,22.8,11111222
BP,ioos:station:wmo:42369:1,2023-02-03T16:39:00Z,27.2006,-90.2880,2.0,22.8,11111222
BP,ioos:station:wmo:42369:1,2023-02-03T16:59:00Z,27.2006,-90.2880,2.0,22.8,11111222
BP,ioos:station:wmo:42369:1,2023-02-03T17:19:00Z,27.2006,-90.2879,2.0,22.8,11111222
BP,ioos:station:wmo:42369:1,2023-02-03T17:39:00Z,27.2006,-90.2879,2.0,22.7,11111222
BP,ioos:station:wmo:42369:1,2023-02-03T17:59:00Z,27.2006,-90.2879,2.0,22.7,11111222
BP,ioos:station:wmo:42369:1,2023-02-03T18:19:00Z,27.2005,-90.2878,2.0,22.7,11111222
BP,ioos:station:wmo:42369:1,2023-02-03T18:39:00Z,27.2005,-90.2877,2.0,22.7,11111222
BP,ioos:station:wmo:42369:1,2023-02-03T18:59:00Z,27.2005,-90.2877,2.0,22.7,11111222
BP,ioos:station:wmo:42369:1,2023-02-03T19:19:00Z,27.2004,-90.2876,2.0,22.7,11111222
BP,ioos:station:wmo:42369:1,2023-02-03T19:39:00Z,27.2004,-90.2876,2.0,22.7,11111222
BP,ioos:station:wmo:42369:1,2023-02-03T19:59:00Z,27.2004,-90.2876,2.0,22.7,11111222
BP,ioos:station:wmo:42369:1,2023-02-03T20:19:00Z,27.2005,-90.2875,2.0,22.7,11111222
BP,ioos:station:wmo:42369:1,2023-02-03T20:39:00Z,27.2006,-90.2876,2.0,22.6,11111222
BP,ioos:station:wmo:42369:1,2023-02-03T20:59:00Z,27.2006,-90.2876,2.0,22.6,11111222
BP,ioos:station:wmo:42369:1,2023-02-03T21:19:00Z,27.2006,-90.2875,2.0,22.6,11111222
BP,ioos:station:wmo:42369:1,2023-02-03T21:39:00Z,27.2006,-90.2876,2.0,22.6,11111222
BP,ioos:station:wmo:42369:1,2023-02-03T21:59:00Z,27.2006,-90.2876,2.0,22.6,11111222
BP,ioos:station:wmo:42369:1,2023-02-03T22:19:00Z,27.2006,-90.2875,2.0,22.6,11111222
BP,ioos:station:wmo:42369:1,2023-02-03T22:39:00Z,27.2007,-90.2874,2.0,22.6,11111222
BP,ioos:station:wmo:42369:1,2023-02-03T22:59:00Z,27.2006,-90.2873,2.0,22.6,11111222
BP,ioos:station:wmo:42369:1,2023-02-03T23:19:00Z,27.2007,-90.2874,2.0,22.6,11111222
BP,ioos:station:wmo:42369:1,2023-02-03T23:39:00Z,27.2007,-90.2874,2.0,22.6,11111222
BP,ioos:station:wmo:42369:1,2023-02-03T23:59:00Z,27.2007,-90.2874,2.0,22.6,11111222
BP,ioos:station:wmo:42369:1,2023-02-04T00:19:00Z,27.2006,-90.2872,2.0,22.6,11111222
BP,ioos:station:wmo:42369:1,2023-02-04T00:39:00Z,27.2007,-90.2873,2.0,22.6,11111222
BP,ioos:station:wmo:42369:1,2023-02-04T00:59:00Z,27.2007,-90.2872,2.0,22.6,11111222
BP,ioos:station:wmo:42369:1,2023-02-04T01:19:00Z,27.2006,-90.2871,2.0,22.6,11111222
BP,ioos:station:wmo:42369:1,2023-02-04T01:39:00Z,27.2006,-90.2870,2.0,22.5,11111222
BP,ioos:station:wmo:42369:1,2023-02-04T01:59:00Z,27.2005,-90.2868,2.0,22.5,11111222
BP,ioos:station:wmo:42369:1,2023-02-04T02:19:00Z,27.2005,-90.2868,2.0,22.5,11111222
BP,ioos:station:wmo:42369:1,2023-02-04T02:39:00Z,27.2005,-90.2865,2.0,22.5,11111222
BP,ioos:station:wmo:42369:1,2023-02-04T02:59:00Z,27.2004,-90.2865,2.0,22.5,11111222
BP,ioos:station:wmo:42369:1,2023-02-04T03:19:00Z,27.2004,-90.2866,2.0,22.5,11111222
BP,ioos:station:wmo:42369:1,2023-02-04T03:39:00Z,27.2005,-90.2867,2.0,22.5,11111222
BP,ioos:station:wmo:42369:1,2023-02-04T03:59:00Z,27.2005,-90.2865,2.0,22.5,11111222
BP,ioos:station:wmo:42369:1,2023-02-04T04:19:00Z,27.2005,-90.2865,2.0,22.5,11111222
BP,ioos:station:wmo:42369:1,2023-02-04T04:39:00Z,27.2005,-90.2865,2.0,22.5,11111222
BP,ioos:station:wmo:42369:1,2023-02-04T04:59:00Z,27.2006,-90.2863,2.0,22.5,11111222
BP,ioos:station:wmo:42369:1,2023-02-04T05:19:00Z,27.2004,-90.2861,2.0,22.5,11111222
BP,ioos:station:wmo:42369:1,2023-02-04T05:39:00Z,27.2004,-90.2860,2.0,22.5,11111222
BP,ioos:station:wmo:42369:1,2023-02-04T05:59:00Z,27.2004,-90.2860,2.0,22.5,11111222
BP,ioos:station:wmo:42369:1,2023-02-04T06:19:00Z,27.2005,-90.2859,2.0,22.5,11111222
BP,ioos:station:wmo:42369:1,2023-02-04T06:39:00Z,27.2004,-90.2857,2.0,22.5,11111222
BP,ioos:station:wmo:42369:1,2023-02-04T06:59:00Z,27.2004,-90.2854,2.0,22.5,11111222
BP,ioos:station:wmo:42369:1,2023-02-04T07:19:00Z,27.2004,-90.2853,2.0,22.5,11111222
BP,ioos:station:wmo:42369:1,2023-02-04T07:39:00Z,27.2003,-90.2851,2.0,22.5,11111222
BP,ioos:station:wmo:42369:1,2023-02-04T07:59:00Z,27.2003,-90.2850,2.0,22.5,11111222
BP,ioos:station:wmo:42369:1,2023-02-04T08:19:00Z,27.2003,-90.2846,2.0,22.5,11111222
BP,ioos:station:wmo:42369:1,2023-02-04T08:39:00Z,27.2003,-90.2846,2.0,22.5,11111222
BP,ioos:station:wmo:42369:1,2023-02-04T08:59:00Z,27.2003,-90.2846,2.0,22.5,11111222
BP,ioos:station:wmo:42369:1,2023-02-04T09:19:00Z,27.2003,-90.2845,2.0,22.5,11111222
BP,ioos:station:wmo:42369:1,2023-02-04T09:39:00Z,27.2003,-90.2844,2.0,22.5,11111222
BP,ioos:station:wmo:42369:1,2023-02-04T09:59:00Z,27.2002,-90.2841,2.0,22.5,11111222
BP,ioos:station:wmo:42369:1,2023-02-04T10:19:00Z,27.2004,-90.2841,2.0,22.5,11111222
BP,ioos:station:wmo:42369:1,2023-02-04T10:39:00Z,27.2002,-90.2839,2.0,22.5,11111222
BP,ioos:station:wmo:42369:1,2023-02-04T10:59:00Z,27.2002,-90.2839,2.0,22.5,11111222
BP,ioos:station:wmo:42369:1,2023-02-04T11:19:00Z,27.2002,-90.2838,2.0,22.5,11111222
BP,ioos:station:wmo:42369:1,2023-02-04T11:39:00Z,27.2001,-90.2836,2.0,22.5,11111222
BP,ioos:station:wmo:42369:1,2023-02-04T11:59:00Z,27.2002,-90.2835,2.0,22.5,11111222
BP,ioos:station:wmo:42369:1,2023-02-04T12:19:00Z,27.2001,-90.2835,2.0,22.5,11111222
BP,ioos:station:wmo:42369:1,2023-02-04T12:39:00Z,27.2002,-90.2836,2.0,22.5,11111222
BP,ioos:station:wmo:42369:1,2023-02-04T12:59:00Z,27.2001,-90.2836,2.0,22.5,11111222
BP,ioos:station:wmo:42369:1,2023-02-04T13:19:00Z,27.2002,-90.2837,2.0,22.5,11111222
BP,ioos:station:wmo:42369:1,2023-02-04T13:39:00Z,27.2001,-90.2837,2.0,22.5,11111222
BP,ioos:station:wmo:42369:1,2023-02-04T13:59:00Z,27.2002,-90.2838,2.0,22.5,11111222
BP,ioos:station:wmo:42369:1,2023-02-04T14:19:00Z,27.2001,-90.2839,2.0,22.5,11111222
BP,ioos:station:wmo:42369:1,2023-02-04T14:39:00Z,27.2001,-90.2842,2.0,22.5,11111222
BP,ioos:station:wmo:42369:1,2023-02-04T14:59:00Z,27.2001,-90.2843,2.0,22.5,11111222
BP,ioos:station:wmo:42369:1,2023-02-04T15:19:00Z,27.2001,-90.2843,2.0,22.5,11111222
BP,ioos:station:wmo:42369:1,2023-02-04T15:39:00Z,27.2001,-90.2846,2.0,22.5,11111222
BP,ioos:station:wmo:42369:1,2023-02-04T15:59:00Z,27.2002,-90.2848,2.0,22.5,11111222
BP,ioos:station:wmo:42369:1,2023-02-04T16:19:00Z,27.2002,-90.2850,2.0,22.5,11111222
BP,ioos:station:wmo:42369:1,2023-02-04T16:39:00Z,27.2003,-90.2852,2.0,22.5,11111222
BP,ioos:station:wmo:42369:1,2023-02-04T16:59:00Z,27.2004,-90.2853,2.0,22.5,11111222
BP,ioos:station:wmo:42369:1,2023-02-04T17:19:00Z,27.2005,-90.2855,2.0,22.5,11111222
BP,ioos:station:wmo:42369:1,2023-02-04T17:39:00Z,27.2004,-90.2855,2.0,22.5,11111222
BP,ioos:station:wmo:42369:1,2023-02-04T17:59:00Z,27.2004,-90.2855,2.0,22.5,11111222
BP,ioos:station:wmo:42369:1,2023-02-04T18:19:00Z,27.2003,-90.2856,2.0,22.6,11111222
BP,ioos:station:wmo:42369:1,2023-02-04T18:39:00Z,27.2004,-90.2857,2.0,22.6,11111222
BP,ioos:station:wmo:42369:1,2023-02-04T18:59:00Z,27.2004,-90.2857,2.0,22.6,11111222
BP,ioos:station:wmo:42369:1,2023-02-04T19:19:00Z,27.2004,-90.2857,2.0,22.6,11111222
BP,ioos:station:wmo:42369:1,2023-02-04T19:39:00Z,27.2004,-90.2858,2.0,22.6,11111222
BP,ioos:station:wmo:42369:1,2023-02-04T19:59:00Z,27.2004,-90.2858,2.0,22.6,11111222
BP,ioos:station:wmo:42369:1,2023-02-04T20:19:00Z,27.2004,-90.2857,2.0,22.6,11111222
BP,ioos:station:wmo:42369:1,2023-02-04T20:39:00Z,27.2004,-90.2855,2.0,22.6,11111222
BP,ioos:station:wmo:42369:1,2023-02-04T20:59:00Z,27.2003,-90.2853,2.0,22.6,11111222
BP,ioos:station:wmo:42369:1,2023-02-04T21:19:00Z,27.2003,-90.2852,2.0,22.6,11111222
BP,ioos:station:wmo:42369:1,2023-02-04T21:39:00Z,27.2003,-90.2851,2.0,22.6,11111222